Time,TemperatureF,DewpointF,PressureIn,WindDirection,WindDirectionDegrees,WindSpeedMPH,WindSpeedGustMPH,Humidity,HourlyPrecipIn,Conditions,Clouds,dailyrainin,SoftwareType,DateUTC
2013-08-29 00:00:00,77.4,72.9,29.95,North,5,0.0,5.0,86,0.00,,---,0.00,VWS V14.01,2013-08-29 04:00:00,
2013-08-29 00:01:00,77.3,72.8,29.95,North,5,0.0,1.0,86,0.00,,---,0.00,VWS V14.01,2013-08-29 04:01:00,
2013-08-29 00:02:00,77.3,72.8,29.95,North,5,0.0,1.0,86,0.00,,---,0.00,VWS V14.01,2013-08-29 04:02:00,
2013-08-29 00:07:00,77.1,72.9,29.95,North,5,0.0,4.0,87,0.00,,---,0.00,VWS V14.01,2013-08-29 04:07:00,
2013-08-29 00:12:00,76.9,72.7,29.95,North,5,1.0,4.0,87,0.00,,---,0.00,VWS V14.01,2013-08-29 04:12:00,
2013-08-29 00:17:00,76.8,72.6,29.95,North,5,0.0,4.0,87,0.00,,---,0.00,VWS V14.01,2013-08-29 04:17:00,
2013-08-29 00:22:00,76.6,72.4,29.95,North,9,0.0,7.0,87,0.00,,---,0.00,VWS V14.01,2013-08-29 04:22:00,
2013-08-29 00:27:00,76.5,72.7,29.95,North,9,0.0,7.0,88,0.00,,---,0.00,VWS V14.01,2013-08-29 04:27:00,
2013-08-29 00:29:00,76.4,72.6,29.95,North,9,0.0,7.0,88,0.00,,---,0.00,VWS V14.01,2013-08-29 04:29:00,
2013-08-29 00:30:00,76.4,72.6,29.95,North,9,0.0,7.0,88,0.00,,---,0.00,VWS V14.01,2013-08-29 04:30:00,
2013-08-29 00:34:00,76.3,72.5,29.95,North,5,1.0,3.0,88,0.00,,---,0.00,VWS V14.01,2013-08-29 04:34:00,
2013-08-29 00:39:00,76.2,72.4,29.95,North,5,0.0,3.0,88,0.00,,---,0.00,VWS V14.01,2013-08-29 04:39:00,
2013-08-29 00:44:00,76.1,72.3,29.94,North,5,0.0,3.0,88,0.00,,---,0.00,VWS V14.01,2013-08-29 04:44:00,
2013-08-29 00:49:00,76.0,72.2,29.94,North,355,0.0,5.0,88,0.00,,---,0.00,VWS V14.01,2013-08-29 04:49:00,
2013-08-29 00:54:00,75.9,72.1,29.94,North,351,0.0,6.0,88,0.00,,---,0.00,VWS V14.01,2013-08-29 04:54:00,
2013-08-29 00:59:00,75.7,71.9,29.94,North,11,0.0,0.0,88,0.00,,---,0.00,VWS V14.01,2013-08-29 04:59:00,
2013-08-29 01:00:00,75.7,71.9,29.94,North,11,0.0,6.0,88,0.00,,---,0.00,VWS V14.01,2013-08-29 05:00:00,
2013-08-29 01:04:00,75.6,71.8,29.93,North,9,0.0,3.0,88,0.00,,---,0.00,VWS V14.01,2013-08-29 05:04:00,
2013-08-29 01:09:00,75.5,71.7,29.93,NNW,329,0.0,4.0,88,0.00,,---,0.00,VWS V14.01,2013-08-29 05:09:00,
2013-08-29 01:14:00,75.4,71.6,29.93,North,5,0.0,5.0,88,0.00,,---,0.00,VWS V14.01,2013-08-29 05:14:00,
2013-08-29 01:19:00,75.3,71.5,29.93,North,355,4.0,5.0,88,0.00,,---,0.00,VWS V14.01,2013-08-29 05:19:00,
2013-08-29 01:24:00,75.2,71.4,29.93,NNE,32,0.0,5.0,88,0.00,,---,0.00,VWS V14.01,2013-08-29 05:24:00,
2013-08-29 01:29:00,75.1,71.3,29.93,North,355,0.0,0.0,88,0.00,,---,0.00,VWS V14.01,2013-08-29 05:29:00,
2013-08-29 01:30:00,75.1,71.3,29.93,North,355,0.0,6.0,88,0.00,,---,0.00,VWS V14.01,2013-08-29 05:30:00,
2013-08-29 01:34:00,75.0,71.5,29.93,North,360,0.0,4.0,89,0.00,,---,0.00,VWS V14.01,2013-08-29 05:34:00,
2013-08-29 01:39:00,74.9,71.4,29.93,NNE,24,3.0,7.0,89,0.00,,---,0.00,VWS V14.01,2013-08-29 05:39:00,
2013-08-29 01:44:00,74.9,71.4,29.93,NNE,19,0.0,7.0,89,0.00,,---,0.00,VWS V14.01,2013-08-29 05:44:00,
2013-08-29 01:49:00,74.8,71.3,29.93,North,360,0.0,7.0,89,0.00,,---,0.00,VWS V14.01,2013-08-29 05:49:00,
2013-08-29 01:54:00,74.8,71.3,29.93,North,360,0.0,7.0,89,0.00,,---,0.00,VWS V14.01,2013-08-29 05:54:00,
2013-08-29 01:59:00,74.7,70.9,29.93,North,5,0.0,1.0,88,0.00,,---,0.00,VWS V14.01,2013-08-29 05:59:00,
2013-08-29 02:00:00,74.7,70.9,29.93,North,5,0.0,7.0,88,0.00,,---,0.00,VWS V14.01,2013-08-29 06:00:00,
2013-08-29 02:04:00,74.7,70.9,29.93,North,5,0.0,4.0,88,0.00,,---,0.00,VWS V14.01,2013-08-29 06:04:00,
2013-08-29 02:09:00,74.6,70.8,29.93,NNW,346,3.0,6.0,88,0.00,,---,0.00,VWS V14.01,2013-08-29 06:09:00,
2013-08-29 02:14:00,74.6,71.2,29.93,NNW,347,0.0,6.0,89,0.00,,---,0.00,VWS V14.01,2013-08-29 06:14:00,
2013-08-29 02:19:00,74.5,71.1,29.93,North,5,0.0,6.0,89,0.00,,---,0.00,VWS V14.01,2013-08-29 06:19:00,
2013-08-29 02:24:00,74.4,70.9,29.93,North,360,0.0,6.0,89,0.00,,---,0.00,VWS V14.01,2013-08-29 06:24:00,
2013-08-29 02:29:00,74.4,70.9,29.93,NNE,26,0.0,0.0,89,0.00,,---,0.00,VWS V14.01,2013-08-29 06:29:00,
2013-08-29 02:30:00,74.4,70.9,29.93,NNE,25,0.0,6.0,89,0.00,,---,0.00,VWS V14.01,2013-08-29 06:30:00,
2013-08-29 02:34:00,74.3,70.8,29.93,NE,48,0.0,3.0,89,0.00,,---,0.00,VWS V14.01,2013-08-29 06:34:00,
2013-08-29 02:39:00,74.3,70.8,29.93,NNE,12,0.0,3.0,89,0.00,,---,0.00,VWS V14.01,2013-08-29 06:39:00,
2013-08-29 02:44:00,74.2,70.8,29.92,North,9,0.0,3.0,89,0.00,,---,0.00,VWS V14.01,2013-08-29 06:44:00,
2013-08-29 02:49:00,74.0,70.6,29.93,NNE,14,0.0,4.0,89,0.00,,---,0.00,VWS V14.01,2013-08-29 06:49:00,
2013-08-29 02:54:00,74.0,70.6,29.93,NNE,15,1.0,4.0,89,0.00,,---,0.00,VWS V14.01,2013-08-29 06:54:00,
2013-08-29 02:59:00,73.9,70.8,29.93,North,360,0.0,3.0,90,0.00,,---,0.00,VWS V14.01,2013-08-29 06:59:00,
2013-08-29 03:00:00,73.9,70.8,29.93,North,360,0.0,4.0,90,0.00,,---,0.00,VWS V14.01,2013-08-29 07:00:00,
2013-08-29 03:04:00,73.8,70.7,29.92,NNE,13,0.0,5.0,90,0.00,,---,0.00,VWS V14.01,2013-08-29 07:04:00,
2013-08-29 03:09:00,73.7,70.6,29.92,North,355,0.0,6.0,90,0.00,,---,0.00,VWS V14.01,2013-08-29 07:09:00,
2013-08-29 03:14:00,73.7,70.6,29.93,North,360,0.0,6.0,90,0.00,,---,0.00,VWS V14.01,2013-08-29 07:14:00,
2013-08-29 03:19:00,73.7,70.6,29.92,North,360,0.0,6.0,90,0.00,,---,0.00,VWS V14.01,2013-08-29 07:19:00,
2013-08-29 03:24:00,73.6,70.5,29.92,North,355,0.0,6.0,90,0.00,,---,0.00,VWS V14.01,2013-08-29 07:24:00,
2013-08-29 03:29:00,73.6,70.5,29.92,North,355,0.0,0.0,90,0.00,,---,0.00,VWS V14.01,2013-08-29 07:29:00,
2013-08-29 03:30:00,73.6,70.5,29.92,North,355,0.0,6.0,90,0.00,,---,0.00,VWS V14.01,2013-08-29 07:30:00,
2013-08-29 03:34:00,73.5,70.4,29.92,North,355,0.0,5.0,90,0.00,,---,0.00,VWS V14.01,2013-08-29 07:34:00,
2013-08-29 03:39:00,73.4,70.3,29.92,North,355,0.0,5.0,90,0.00,,---,0.00,VWS V14.01,2013-08-29 07:39:00,
2013-08-29 03:44:00,73.4,70.3,29.92,North,355,0.0,5.0,90,0.00,,---,0.00,VWS V14.01,2013-08-29 07:44:00,
2013-08-29 03:49:00,73.3,70.5,29.92,North,355,0.0,5.0,91,0.00,,---,0.00,VWS V14.01,2013-08-29 07:49:00,
2013-08-29 03:54:00,73.3,70.2,29.92,North,355,0.0,5.0,90,0.00,,---,0.00,VWS V14.01,2013-08-29 07:54:00,
2013-08-29 03:59:00,73.2,70.1,29.92,North,355,0.0,0.0,90,0.00,,---,0.00,VWS V14.01,2013-08-29 07:59:00,
2013-08-29 04:00:00,73.3,70.2,29.92,North,355,0.0,5.0,90,0.00,,---,0.00,VWS V14.01,2013-08-29 08:00:00,
2013-08-29 04:04:00,73.2,70.4,29.92,North,355,0.0,5.0,91,0.00,,---,0.00,VWS V14.01,2013-08-29 08:04:00,
2013-08-29 04:09:00,73.1,70.3,29.93,North,355,0.0,5.0,91,0.00,,---,0.00,VWS V14.01,2013-08-29 08:09:00,
2013-08-29 04:14:00,73.1,70.3,29.92,North,355,1.0,5.0,91,0.00,,---,0.00,VWS V14.01,2013-08-29 08:14:00,
2013-08-29 04:19:00,73.0,70.2,29.92,North,355,0.0,5.0,91,0.00,,---,0.00,VWS V14.01,2013-08-29 08:19:00,
2013-08-29 04:24:00,73.0,70.2,29.92,NNE,22,0.0,5.0,91,0.00,,---,0.00,VWS V14.01,2013-08-29 08:24:00,
2013-08-29 04:29:00,72.9,70.1,29.92,North,355,0.0,1.0,91,0.00,,---,0.00,VWS V14.01,2013-08-29 08:29:00,
2013-08-29 04:30:00,72.9,70.1,29.92,NNE,22,0.0,5.0,91,0.00,,---,0.00,VWS V14.01,2013-08-29 08:30:00,
2013-08-29 04:34:00,72.9,70.1,29.92,North,355,0.0,1.0,91,0.00,,---,0.00,VWS V14.01,2013-08-29 08:34:00,
2013-08-29 04:39:00,72.8,70.0,29.92,North,355,0.0,1.0,91,0.00,,---,0.00,VWS V14.01,2013-08-29 08:39:00,
2013-08-29 04:44:00,72.8,70.0,29.92,North,355,0.0,1.0,91,0.00,,---,0.00,VWS V14.01,2013-08-29 08:44:00,
2013-08-29 04:49:00,72.8,70.0,29.92,North,355,0.0,1.0,91,0.00,,---,0.00,VWS V14.01,2013-08-29 08:49:00,
2013-08-29 04:54:00,72.7,69.9,29.92,North,5,0.0,4.0,91,0.00,,---,0.00,VWS V14.01,2013-08-29 08:54:00,
2013-08-29 04:59:00,72.7,70.2,29.92,NNE,22,0.0,0.0,92,0.00,,---,0.00,VWS V14.01,2013-08-29 08:59:00,
2013-08-29 05:00:00,72.7,70.2,29.92,NNE,22,0.0,5.0,92,0.00,,---,0.00,VWS V14.01,2013-08-29 09:00:00,
2013-08-29 05:05:00,72.7,70.2,29.92,NNE,30,0.0,1.0,92,0.00,,---,0.00,VWS V14.01,2013-08-29 09:05:00,
2013-08-29 05:10:00,72.7,70.2,29.92,NNE,30,0.0,1.0,92,0.00,,---,0.00,VWS V14.01,2013-08-29 09:10:00,
2013-08-29 05:15:00,72.7,69.9,29.92,NNE,18,0.0,3.0,91,0.00,,---,0.00,VWS V14.01,2013-08-29 09:15:00,
2013-08-29 05:20:00,72.6,69.8,29.92,NNE,18,0.0,3.0,91,0.00,,---,0.00,VWS V14.01,2013-08-29 09:20:00,
2013-08-29 05:25:00,72.7,70.2,29.92,NNE,18,0.0,3.0,92,0.00,,---,0.00,VWS V14.01,2013-08-29 09:25:00,
2013-08-29 05:30:00,72.7,69.9,29.92,NNE,21,0.0,0.0,91,0.00,,---,0.00,VWS V14.01,2013-08-29 09:30:00,
2013-08-29 05:35:00,72.7,69.9,29.92,NNE,21,0.0,0.0,91,0.00,,---,0.00,VWS V14.01,2013-08-29 09:35:00,
2013-08-29 05:40:00,72.6,69.8,29.92,NNE,30,0.0,1.0,91,0.00,,---,0.00,VWS V14.01,2013-08-29 09:40:00,
2013-08-29 05:45:00,72.7,69.9,29.92,NE,35,0.0,1.0,91,0.00,,---,0.00,VWS V14.01,2013-08-29 09:45:00,
2013-08-29 05:50:00,72.7,69.9,29.92,NE,42,0.0,1.0,91,0.00,,---,0.00,VWS V14.01,2013-08-29 09:50:00,
2013-08-29 05:55:00,72.7,69.9,29.92,NNE,28,0.0,5.0,91,0.00,,---,0.00,VWS V14.01,2013-08-29 09:55:00,
2013-08-29 06:00:00,72.7,69.9,29.92,North,9,0.0,1.0,91,0.00,,---,0.00,VWS V14.01,2013-08-29 10:00:00,
2013-08-29 06:05:00,72.8,70.0,29.92,NNE,31,0.0,5.0,91,0.00,,---,0.00,VWS V14.01,2013-08-29 10:05:00,
2013-08-29 06:10:00,72.8,69.7,29.92,North,360,0.0,5.0,90,0.00,,---,0.00,VWS V14.01,2013-08-29 10:10:00,
2013-08-29 06:15:00,72.8,69.7,29.92,North,360,0.0,5.0,90,0.00,,---,0.00,VWS V14.01,2013-08-29 10:15:00,
2013-08-29 06:20:00,72.9,69.8,29.92,NE,56,0.0,5.0,90,0.00,,---,0.00,VWS V14.01,2013-08-29 10:20:00,
2013-08-29 06:25:00,73.0,69.9,29.92,North,360,0.0,5.0,90,0.00,,---,0.00,VWS V14.01,2013-08-29 10:25:00,
2013-08-29 06:30:00,73.0,69.6,29.92,NE,34,0.0,1.0,89,0.00,,---,0.00,VWS V14.01,2013-08-29 10:30:00,
2013-08-29 06:35:00,73.0,69.6,29.92,NE,34,0.0,1.0,89,0.00,,---,0.00,VWS V14.01,2013-08-29 10:35:00,
2013-08-29 06:40:00,73.0,69.6,29.92,NNW,344,0.0,4.0,89,0.00,,---,0.00,VWS V14.01,2013-08-29 10:40:00,
2013-08-29 06:45:00,73.0,69.6,29.92,NNW,344,0.0,4.0,89,0.00,,---,0.00,VWS V14.01,2013-08-29 10:45:00,
2013-08-29 06:50:00,73.0,69.6,29.92,NNW,347,0.0,4.0,89,0.00,,---,0.00,VWS V14.01,2013-08-29 10:50:00,
2013-08-29 06:55:00,72.9,69.5,29.92,North,350,0.0,4.0,89,0.00,,---,0.00,VWS V14.01,2013-08-29 10:55:00,
2013-08-29 07:00:00,72.9,69.5,29.92,North,350,2.0,3.0,89,0.00,,---,0.00,VWS V14.01,2013-08-29 11:00:00,
2013-08-29 07:05:00,72.8,69.4,29.93,North,350,0.0,3.0,89,0.00,,---,0.00,VWS V14.01,2013-08-29 11:05:00,
2013-08-29 07:10:00,72.8,69.4,29.93,North,350,0.0,3.0,89,0.00,,---,0.00,VWS V14.01,2013-08-29 11:10:00,
2013-08-29 07:15:00,72.8,69.4,29.93,North,350,0.0,3.0,89,0.00,,---,0.00,VWS V14.01,2013-08-29 11:15:00,
2013-08-29 07:20:00,72.8,69.4,29.93,North,350,0.0,3.0,89,0.00,,---,0.00,VWS V14.01,2013-08-29 11:20:00,
2013-08-29 07:25:00,72.9,69.5,29.93,North,355,0.0,3.0,89,0.00,,---,0.00,VWS V14.01,2013-08-29 11:25:00,
2013-08-29 07:30:00,73.0,69.6,29.93,North,355,0.0,0.0,89,0.00,,---,0.00,VWS V14.01,2013-08-29 11:30:00,
2013-08-29 07:35:00,73.3,69.9,29.93,NNE,24,0.0,5.0,89,0.00,,---,0.00,VWS V14.01,2013-08-29 11:35:00,
2013-08-29 07:40:00,73.5,69.7,29.93,North,360,4.0,5.0,88,0.00,,---,0.00,VWS V14.01,2013-08-29 11:40:00,
2013-08-29 07:45:00,73.7,69.9,29.93,North,5,0.0,6.0,88,0.00,,---,0.00,VWS V14.01,2013-08-29 11:45:00,
2013-08-29 07:50:00,73.9,70.1,29.93,NNW,339,0.0,6.0,88,0.00,,---,0.00,VWS V14.01,2013-08-29 11:50:00,
2013-08-29 07:55:00,74.0,69.9,29.93,North,351,0.0,6.0,87,0.00,,---,0.00,VWS V14.01,2013-08-29 11:55:00,
2013-08-29 08:00:00,74.1,70.0,29.93,North,5,0.0,2.0,87,0.00,,---,0.00,VWS V14.01,2013-08-29 12:00:00,
2013-08-29 08:05:00,74.4,70.3,29.93,North,351,1.0,3.0,87,0.00,,---,0.00,VWS V14.01,2013-08-29 12:05:00,
2013-08-29 08:10:00,74.8,70.3,29.93,North,355,2.0,5.0,86,0.00,,---,0.00,VWS V14.01,2013-08-29 12:10:00,
2013-08-29 08:15:00,74.9,70.1,29.93,NNE,17,0.0,7.0,85,0.00,,---,0.00,VWS V14.01,2013-08-29 12:15:00,
2013-08-29 08:20:00,75.1,70.3,29.93,NE,35,0.0,7.0,85,0.00,,---,0.00,VWS V14.01,2013-08-29 12:20:00,
2013-08-29 08:25:00,75.3,70.5,29.93,NE,54,0.0,7.0,85,0.00,,---,0.00,VWS V14.01,2013-08-29 12:25:00,
2013-08-29 08:30:00,75.3,70.5,29.94,North,5,0.0,0.0,85,0.00,,---,0.00,VWS V14.01,2013-08-29 12:30:00,
2013-08-29 08:35:00,75.4,70.6,29.94,NE,54,0.0,4.0,85,0.00,,---,0.00,VWS V14.01,2013-08-29 12:35:00,
2013-08-29 08:40:00,75.5,70.7,29.93,NNE,28,0.0,4.0,85,0.00,,---,0.00,VWS V14.01,2013-08-29 12:40:00,
2013-08-29 08:45:00,75.6,70.8,29.93,ENE,63,0.0,4.0,85,0.00,,---,0.00,VWS V14.01,2013-08-29 12:45:00,
2013-08-29 08:50:00,75.9,71.1,29.93,NNE,21,0.0,5.0,85,0.00,,---,0.00,VWS V14.01,2013-08-29 12:50:00,
2013-08-29 08:55:00,76.2,71.0,29.93,NE,55,0.0,5.0,84,0.00,,---,0.00,VWS V14.01,2013-08-29 12:55:00,
2013-08-29 09:00:00,76.5,71.3,29.93,NE,50,1.0,1.0,84,0.00,,---,0.00,VWS V14.01,2013-08-29 13:00:00,
2013-08-29 09:05:00,76.6,71.1,29.93,NNE,25,0.0,7.0,83,0.00,,---,0.00,VWS V14.01,2013-08-29 13:05:00,
2013-08-29 09:10:00,76.8,71.2,29.93,NE,38,0.0,7.0,83,0.00,,---,0.00,VWS V14.01,2013-08-29 13:10:00,
2013-08-29 09:15:00,77.3,71.4,29.93,NNW,341,0.0,7.0,82,0.00,,---,0.00,VWS V14.01,2013-08-29 13:15:00,
2013-08-29 09:20:00,77.7,71.4,29.93,NNE,26,0.0,9.0,81,0.00,,---,0.00,VWS V14.01,2013-08-29 13:20:00,
2013-08-29 09:26:00,78.3,71.6,29.94,ENE,59,0.0,9.0,80,0.00,,---,0.00,VWS V14.01,2013-08-29 13:26:00,
2013-08-29 09:30:00,78.6,71.9,29.93,NE,46,0.0,9.0,80,0.00,,---,0.00,VWS V14.01,2013-08-29 13:30:00,
2013-08-29 09:31:00,78.8,71.7,29.94,NE,41,1.0,7.0,79,0.00,,---,0.00,VWS V14.01,2013-08-29 13:31:00,
2013-08-29 09:36:00,79.0,71.9,29.94,NE,55,0.0,7.0,79,0.00,,---,0.00,VWS V14.01,2013-08-29 13:36:00,
2013-08-29 09:41:00,79.6,72.1,29.94,NE,46,0.0,8.0,78,0.00,,---,0.00,VWS V14.01,2013-08-29 13:41:00,
2013-08-29 09:46:00,79.9,72.1,29.94,ENE,61,4.0,12.0,77,0.00,,---,0.00,VWS V14.01,2013-08-29 13:46:00,
2013-08-29 09:51:00,79.9,72.1,29.93,NE,49,0.0,12.0,77,0.00,,---,0.00,VWS V14.01,2013-08-29 13:51:00,
2013-08-29 09:56:00,80.3,72.1,29.93,NNE,17,0.0,12.0,76,0.00,,---,0.00,VWS V14.01,2013-08-29 13:56:00,
2013-08-29 10:00:00,80.7,72.4,29.93,NE,40,7.0,12.0,76,0.00,,---,0.00,VWS V14.01,2013-08-29 14:00:00,
2013-08-29 10:01:00,80.7,72.0,29.93,North,5,0.0,11.0,75,0.00,,---,0.00,VWS V14.01,2013-08-29 14:01:00,
2013-08-29 10:06:00,81.0,72.7,29.93,ENE,71,3.0,11.0,76,0.00,,---,0.00,VWS V14.01,2013-08-29 14:06:00,
2013-08-29 10:11:00,81.4,72.3,29.93,ENE,57,8.0,11.0,74,0.00,,---,0.00,VWS V14.01,2013-08-29 14:11:00,
2013-08-29 10:16:00,81.8,72.7,29.93,NE,55,9.0,11.0,74,0.00,,---,0.00,VWS V14.01,2013-08-29 14:16:00,
2013-08-29 10:21:00,82.0,72.5,29.93,East,84,5.0,11.0,73,0.00,,---,0.00,VWS V14.01,2013-08-29 14:21:00,
2013-08-29 10:26:00,82.0,72.9,29.93,NE,44,4.0,11.0,74,0.00,,---,0.00,VWS V14.01,2013-08-29 14:26:00,
2013-08-29 10:30:00,82.2,73.1,29.93,NNE,13,0.0,11.0,74,0.00,,---,0.00,VWS V14.01,2013-08-29 14:30:00,
2013-08-29 10:31:00,82.4,73.3,29.93,ENE,65,0.0,6.0,74,0.00,,---,0.00,VWS V14.01,2013-08-29 14:31:00,
2013-08-29 10:36:00,82.9,73.4,29.93,ENE,59,4.0,8.0,73,0.00,,---,0.00,VWS V14.01,2013-08-29 14:36:00,
2013-08-29 10:41:00,83.0,73.1,29.94,NE,55,8.0,12.0,72,0.00,,---,0.00,VWS V14.01,2013-08-29 14:41:00,
2013-08-29 10:46:00,83.0,73.1,29.93,NNE,29,3.0,12.0,72,0.00,,---,0.00,VWS V14.01,2013-08-29 14:46:00,
2013-08-29 10:51:00,83.4,73.4,29.93,NE,44,5.0,12.0,72,0.00,,---,0.00,VWS V14.01,2013-08-29 14:51:00,
2013-08-29 10:56:00,83.3,73.3,29.93,NE,39,2.0,12.0,72,0.00,,---,0.00,VWS V14.01,2013-08-29 14:56:00,
2013-08-29 11:00:00,83.6,73.6,29.93,NNE,13,0.0,12.0,72,0.00,,---,0.00,VWS V14.01,2013-08-29 15:00:00,
2013-08-29 11:01:00,83.9,73.9,29.93,NNW,341,1.0,5.0,72,0.00,,---,0.00,VWS V14.01,2013-08-29 15:01:00,
2013-08-29 11:06:00,84.5,74.1,29.92,NNE,26,1.0,9.0,71,0.00,,---,0.00,VWS V14.01,2013-08-29 15:06:00,
2013-08-29 11:11:00,84.8,73.9,29.92,NE,44,6.0,10.0,70,0.00,,---,0.00,VWS V14.01,2013-08-29 15:11:00,
2013-08-29 11:16:00,85.2,74.3,29.92,North,355,0.0,10.0,70,0.00,,---,0.00,VWS V14.01,2013-08-29 15:16:00,
2013-08-29 11:21:00,85.6,74.3,29.92,ENE,57,0.0,10.0,69,0.00,,---,0.00,VWS V14.01,2013-08-29 15:21:00,
2013-08-29 11:26:00,86.1,75.2,29.92,NE,55,5.0,10.0,70,0.00,,---,0.00,VWS V14.01,2013-08-29 15:26:00,
2013-08-29 11:30:00,86.4,75.0,29.92,North,355,2.0,10.0,69,0.00,,---,0.00,VWS V14.01,2013-08-29 15:30:00,
2013-08-29 11:31:00,86.4,75.0,29.92,North,5,0.0,7.0,69,0.00,,---,0.00,VWS V14.01,2013-08-29 15:31:00,
2013-08-29 11:36:00,86.5,75.1,29.92,ENE,68,7.0,9.0,69,0.00,,---,0.00,VWS V14.01,2013-08-29 15:36:00,
2013-08-29 11:41:00,86.4,75.0,29.91,NNW,348,0.0,9.0,69,0.00,,---,0.00,VWS V14.01,2013-08-29 15:41:00,
2013-08-29 11:46:00,86.7,75.8,29.91,North,5,0.0,9.0,70,0.00,,---,0.00,VWS V14.01,2013-08-29 15:46:00,
2013-08-29 11:51:00,87.1,75.3,29.92,East,90,6.0,9.0,68,0.00,,---,0.00,VWS V14.01,2013-08-29 15:51:00,
2013-08-29 11:56:00,87.1,75.3,29.91,NE,40,0.0,9.0,68,0.00,,---,0.00,VWS V14.01,2013-08-29 15:56:00,
2013-08-29 12:00:00,87.2,75.4,29.91,NE,42,4.0,9.0,68,0.00,,---,0.00,VWS V14.01,2013-08-29 16:00:00,
2013-08-29 12:01:00,87.4,75.1,29.92,ESE,112,0.0,9.0,67,0.00,,---,0.00,VWS V14.01,2013-08-29 16:01:00,
2013-08-29 12:06:00,87.4,75.1,29.91,ENE,61,1.0,10.0,67,0.00,,---,0.00,VWS V14.01,2013-08-29 16:06:00,
2013-08-29 12:11:00,87.7,75.4,29.91,NE,48,0.0,10.0,67,0.00,,---,0.00,VWS V14.01,2013-08-29 16:11:00,
2013-08-29 12:16:00,88.2,75.4,29.90,NE,41,0.0,10.0,66,0.00,,---,0.00,VWS V14.01,2013-08-29 16:16:00,
2013-08-29 12:21:00,88.7,75.9,29.91,North,350,0.0,10.0,66,0.00,,---,0.00,VWS V14.01,2013-08-29 16:21:00,
2013-08-29 12:26:00,89.0,76.2,29.91,East,92,2.0,10.0,66,0.00,,---,0.00,VWS V14.01,2013-08-29 16:26:00,
2013-08-29 12:30:00,89.0,75.7,29.91,ESE,103,1.0,10.0,65,0.00,,---,0.00,VWS V14.01,2013-08-29 16:30:00,
2013-08-29 12:31:00,89.0,75.7,29.91,ENE,68,2.0,9.0,65,0.00,,---,0.00,VWS V14.01,2013-08-29 16:31:00,
2013-08-29 12:36:00,88.8,75.5,29.90,NE,46,4.0,9.0,65,0.00,,---,0.00,VWS V14.01,2013-08-29 16:36:00,
2013-08-29 12:41:00,88.8,76.0,29.91,East,79,3.0,9.0,66,0.00,,---,0.00,VWS V14.01,2013-08-29 16:41:00,
2013-08-29 12:46:00,88.9,75.2,29.90,NE,34,0.0,9.0,64,0.00,,---,0.00,VWS V14.01,2013-08-29 16:46:00,
2013-08-29 12:51:00,89.2,75.4,29.90,NE,52,2.0,9.0,64,0.00,,---,0.00,VWS V14.01,2013-08-29 16:51:00,
2013-08-29 12:56:00,89.5,76.2,29.90,South,182,0.0,9.0,65,0.00,,---,0.00,VWS V14.01,2013-08-29 16:56:00,
2013-08-29 13:00:00,89.7,75.9,29.90,North,5,0.0,9.0,64,0.00,,---,0.00,VWS V14.01,2013-08-29 17:00:00,
2013-08-29 13:01:00,89.6,75.3,29.90,SSE,168,0.0,2.0,63,0.00,,---,0.00,VWS V14.01,2013-08-29 17:01:00,
2013-08-29 13:06:00,89.7,76.4,29.90,NE,46,0.0,2.0,65,0.00,,---,0.00,VWS V14.01,2013-08-29 17:06:00,
2013-08-29 13:11:00,89.7,75.9,29.90,SE,126,0.0,6.0,64,0.00,,---,0.00,VWS V14.01,2013-08-29 17:11:00,
2013-08-29 13:16:00,89.9,76.1,29.90,NE,54,1.0,7.0,64,0.00,,---,0.00,VWS V14.01,2013-08-29 17:16:00,
2013-08-29 13:21:00,90.5,76.2,29.90,ENE,61,3.0,7.0,63,0.00,,---,0.00,VWS V14.01,2013-08-29 17:21:00,
2013-08-29 13:26:00,90.6,76.8,29.90,SSE,153,1.0,7.0,64,0.00,,---,0.00,VWS V14.01,2013-08-29 17:26:00,
2013-08-29 13:30:00,90.6,76.3,29.90,SSE,165,0.0,7.0,63,0.00,,---,0.00,VWS V14.01,2013-08-29 17:30:00,
2013-08-29 13:31:00,90.5,75.7,29.90,East,92,0.0,5.0,62,0.00,,---,0.00,VWS V14.01,2013-08-29 17:31:00,
2013-08-29 13:36:00,90.5,75.7,29.90,East,89,1.0,6.0,62,0.00,,---,0.00,VWS V14.01,2013-08-29 17:36:00,
2013-08-29 13:41:00,90.2,75.4,29.90,ENE,63,2.0,8.0,62,0.00,,---,0.00,VWS V14.01,2013-08-29 17:41:00,
2013-08-29 13:46:00,90.4,74.6,29.90,East,99,0.0,8.0,60,0.00,,---,0.00,VWS V14.01,2013-08-29 17:46:00,
2013-08-29 13:51:00,90.9,75.6,29.90,North,349,0.0,8.0,61,0.00,,---,0.00,VWS V14.01,2013-08-29 17:51:00,
2013-08-29 13:56:00,91.3,76.0,29.89,SE,141,0.0,8.0,61,0.00,,---,0.00,VWS V14.01,2013-08-29 17:56:00,
2013-08-29 14:00:00,91.4,76.1,29.89,SE,138,1.0,8.0,61,0.00,,---,0.00,VWS V14.01,2013-08-29 18:00:00,
2013-08-29 14:01:00,91.0,76.2,29.89,ESE,117,0.0,4.0,62,0.00,,---,0.00,VWS V14.01,2013-08-29 18:01:00,
2013-08-29 14:06:00,91.0,76.2,29.89,NE,42,4.0,5.0,62,0.00,,---,0.00,VWS V14.01,2013-08-29 18:06:00,
2013-08-29 14:11:00,91.2,75.9,29.89,ENE,74,0.0,6.0,61,0.00,,---,0.00,VWS V14.01,2013-08-29 18:11:00,
2013-08-29 14:16:00,91.2,75.4,29.89,ENE,57,2.0,8.0,60,0.00,,---,0.00,VWS V14.01,2013-08-29 18:16:00,
2013-08-29 14:22:00,91.5,75.7,29.89,SSE,162,1.0,8.0,60,0.00,,---,0.00,VWS V14.01,2013-08-29 18:22:00,
2013-08-29 14:27:00,91.4,75.1,29.89,East,101,0.0,8.0,59,0.00,,---,0.00,VWS V14.01,2013-08-29 18:27:00,
2013-08-29 14:30:00,91.5,75.2,29.89,East,93,0.0,8.0,59,0.00,,---,0.00,VWS V14.01,2013-08-29 18:30:00,
2013-08-29 14:32:00,91.6,74.7,29.89,NE,55,0.0,2.0,58,0.00,,---,0.00,VWS V14.01,2013-08-29 18:32:00,
2013-08-29 14:37:00,91.7,74.8,29.88,NE,52,4.0,7.0,58,0.00,,---,0.00,VWS V14.01,2013-08-29 18:37:00,
2013-08-29 14:42:00,92.0,75.6,29.88,NE,40,0.0,7.0,59,0.00,,---,0.00,VWS V14.01,2013-08-29 18:42:00,
2013-08-29 14:47:00,92.1,75.7,29.88,ESE,117,0.0,7.0,59,0.00,,---,0.00,VWS V14.01,2013-08-29 18:47:00,
2013-08-29 14:52:00,91.6,74.7,29.88,South,182,3.0,7.0,58,0.00,,---,0.00,VWS V14.01,2013-08-29 18:52:00,
2013-08-29 14:57:00,91.3,75.0,29.88,SE,131,3.0,7.0,59,0.00,,---,0.00,VWS V14.01,2013-08-29 18:57:00,
2013-08-29 15:00:00,91.4,75.1,29.87,East,79,1.0,7.0,59,0.00,,---,0.00,VWS V14.01,2013-08-29 19:00:00,
2013-08-29 15:02:00,91.8,74.9,29.87,NE,45,0.0,5.0,58,0.00,,---,0.00,VWS V14.01,2013-08-29 19:02:00,
2013-08-29 15:07:00,91.5,75.7,29.87,SE,138,1.0,5.0,60,0.00,,---,0.00,VWS V14.01,2013-08-29 19:07:00,
2013-08-29 15:12:00,91.4,75.1,29.87,SE,128,0.0,5.0,59,0.00,,---,0.00,VWS V14.01,2013-08-29 19:12:00,
2013-08-29 15:17:00,91.2,74.9,29.87,ESE,113,0.0,5.0,59,0.00,,---,0.00,VWS V14.01,2013-08-29 19:17:00,
2013-08-29 15:22:00,91.2,75.9,29.87,SE,132,1.0,7.0,61,0.00,,---,0.00,VWS V14.01,2013-08-29 19:22:00,
2013-08-29 15:27:00,91.7,75.3,29.87,East,91,5.0,7.0,59,0.00,,---,0.00,VWS V14.01,2013-08-29 19:27:00,
2013-08-29 15:30:00,91.8,74.9,29.87,ENE,78,0.0,7.0,58,0.00,,---,0.00,VWS V14.01,2013-08-29 19:30:00,
2013-08-29 15:32:00,92.0,75.6,29.86,SSE,165,2.0,2.0,59,0.00,,---,0.00,VWS V14.01,2013-08-29 19:32:00,
2013-08-29 15:37:00,91.7,74.8,29.86,ENE,64,2.0,3.0,58,0.00,,---,0.00,VWS V14.01,2013-08-29 19:37:00,
2013-08-29 15:42:00,92.1,75.2,29.86,ESE,121,0.0,3.0,58,0.00,,---,0.00,VWS V14.01,2013-08-29 19:42:00,
2013-08-29 15:47:00,92.0,75.1,29.86,NNE,30,7.0,7.0,58,0.00,,---,0.00,VWS V14.01,2013-08-29 19:47:00,
2013-08-29 15:52:00,92.4,75.0,29.86,NNE,30,0.0,8.0,57,0.00,,---,0.00,VWS V14.01,2013-08-29 19:52:00,
2013-08-29 15:57:00,92.7,75.2,29.86,NNE,29,0.0,8.0,57,0.00,,---,0.00,VWS V14.01,2013-08-29 19:57:00,
2013-08-29 16:00:00,92.7,75.2,29.86,ESE,103,1.0,8.0,57,0.00,,---,0.00,VWS V14.01,2013-08-29 20:00:00,
2013-08-29 16:02:00,92.5,75.1,29.86,ESE,110,0.0,4.0,57,0.00,,---,0.00,VWS V14.01,2013-08-29 20:02:00,
2013-08-29 16:07:00,92.1,75.7,29.86,NE,55,0.0,6.0,59,0.00,,---,0.00,VWS V14.01,2013-08-29 20:07:00,
2013-08-29 16:12:00,92.2,74.8,29.86,NE,47,0.0,6.0,57,0.00,,---,0.00,VWS V14.01,2013-08-29 20:12:00,
2013-08-29 16:17:00,92.4,75.0,29.85,ENE,64,0.0,6.0,57,0.00,,---,0.00,VWS V14.01,2013-08-29 20:17:00,
2013-08-29 16:22:00,92.7,75.8,29.86,SSE,160,3.0,6.0,58,0.00,,---,0.00,VWS V14.01,2013-08-29 20:22:00,
2013-08-29 16:27:00,92.7,75.2,29.86,ESE,122,0.0,6.0,57,0.00,,---,0.00,VWS V14.01,2013-08-29 20:27:00,
2013-08-29 16:30:00,92.7,75.2,29.86,ESE,123,0.0,6.0,57,0.00,,---,0.00,VWS V14.01,2013-08-29 20:30:00,
2013-08-29 16:32:00,92.6,75.7,29.86,SSE,150,0.0,3.0,58,0.00,,---,0.00,VWS V14.01,2013-08-29 20:32:00,
2013-08-29 16:37:00,92.7,75.2,29.86,East,79,0.0,5.0,57,0.00,,---,0.00,VWS V14.01,2013-08-29 20:37:00,
2013-08-29 16:42:00,92.6,75.2,29.86,ENE,62,0.0,5.0,57,0.00,,---,0.00,VWS V14.01,2013-08-29 20:42:00,
2013-08-29 16:47:00,92.6,75.2,29.86,NNE,30,0.0,5.0,57,0.00,,---,0.00,VWS V14.01,2013-08-29 20:47:00,
2013-08-29 16:52:00,92.9,75.4,29.86,North,5,0.0,5.0,57,0.00,,---,0.00,VWS V14.01,2013-08-29 20:52:00,
2013-08-29 16:57:00,93.4,75.4,29.86,East,86,0.0,5.0,56,0.00,,---,0.00,VWS V14.01,2013-08-29 20:57:00,
2013-08-29 17:00:00,93.5,76.0,29.86,East,96,1.0,5.0,57,0.00,,---,0.00,VWS V14.01,2013-08-29 21:00:00,
2013-08-29 17:02:00,93.1,75.6,29.85,SE,145,3.0,4.0,57,0.00,,---,0.00,VWS V14.01,2013-08-29 21:02:00,
2013-08-29 17:07:00,92.3,75.9,29.85,SE,138,2.0,4.0,59,0.00,,---,0.00,VWS V14.01,2013-08-29 21:07:00,
2013-08-29 17:13:00,92.2,75.8,29.85,SE,140,0.0,4.0,59,0.00,,---,0.00,VWS V14.01,2013-08-29 21:13:00,
2013-08-29 17:18:00,91.8,75.9,29.86,East,86,0.0,4.0,60,0.00,,---,0.00,VWS V14.01,2013-08-29 21:18:00,
2013-08-29 17:23:00,91.2,75.9,29.86,SE,132,0.0,5.0,61,0.00,,---,0.00,VWS V14.01,2013-08-29 21:23:00,
2013-08-29 17:28:00,90.7,76.4,29.86,SSE,153,0.0,5.0,63,0.00,,---,0.00,VWS V14.01,2013-08-29 21:28:00,
2013-08-29 17:30:00,90.7,76.8,29.86,SSE,153,0.0,5.0,64,0.00,,---,0.00,VWS V14.01,2013-08-29 21:30:00,
2013-08-29 17:33:00,90.4,77.0,29.86,South,172,0.0,4.0,65,0.00,,---,0.00,VWS V14.01,2013-08-29 21:33:00,
2013-08-29 17:38:00,89.5,75.7,29.86,South,185,2.0,12.0,64,0.00,,---,0.00,VWS V14.01,2013-08-29 21:38:00,
2013-08-29 17:43:00,88.8,76.0,29.86,SE,143,0.0,12.0,66,0.00,,---,0.00,VWS V14.01,2013-08-29 21:43:00,
2013-08-29 17:48:00,87.9,74.7,29.86,South,178,1.0,12.0,65,0.00,,---,0.00,VWS V14.01,2013-08-29 21:48:00,
2013-08-29 17:53:00,87.1,74.8,29.86,South,176,0.0,12.0,67,0.00,,---,0.00,VWS V14.01,2013-08-29 21:53:00,
2013-08-29 17:58:00,86.4,75.0,29.87,South,186,0.0,12.0,69,0.00,,---,0.00,VWS V14.01,2013-08-29 21:58:00,
2013-08-29 18:00:00,86.3,74.9,29.87,South,181,0.0,12.0,69,0.00,,---,0.00,VWS V14.01,2013-08-29 22:00:00,
2013-08-29 18:03:00,85.9,75.0,29.87,SSE,155,4.0,6.0,70,0.00,,---,0.00,VWS V14.01,2013-08-29 22:03:00,
2013-08-29 18:08:00,85.4,74.9,29.87,SE,125,1.0,6.0,71,0.00,,---,0.00,VWS V14.01,2013-08-29 22:08:00,
2013-08-29 18:13:00,84.9,74.9,29.87,South,171,3.0,8.0,72,0.00,,---,0.00,VWS V14.01,2013-08-29 22:13:00,
2013-08-29 18:18:00,84.6,75.0,29.87,SSE,149,3.0,8.0,73,0.00,,---,0.00,VWS V14.01,2013-08-29 22:18:00,
2013-08-29 18:23:00,84.3,74.7,29.87,SSE,155,0.0,8.0,73,0.00,,---,0.00,VWS V14.01,2013-08-29 22:23:00,
2013-08-29 18:28:00,84.0,74.0,29.87,South,191,4.0,8.0,72,0.00,,---,0.00,VWS V14.01,2013-08-29 22:28:00,
2013-08-29 18:30:00,83.9,73.5,29.87,South,188,6.0,8.0,71,0.00,,---,0.00,VWS V14.01,2013-08-29 22:30:00,
2013-08-29 18:33:00,83.3,73.8,29.87,South,181,0.0,13.0,73,0.00,,---,0.00,VWS V14.01,2013-08-29 22:33:00,
2013-08-29 18:38:00,82.4,73.7,29.87,SSE,153,4.0,13.0,75,0.00,,---,0.00,VWS V14.01,2013-08-29 22:38:00,
2013-08-29 18:43:00,81.7,73.4,29.88,SSE,151,0.0,13.0,76,0.00,,---,0.00,VWS V14.01,2013-08-29 22:43:00,
2013-08-29 18:48:00,81.3,73.0,29.87,South,179,0.0,13.0,76,0.00,,---,0.00,VWS V14.01,2013-08-29 22:48:00,
2013-08-29 18:53:00,81.3,73.0,29.87,South,174,0.0,13.0,76,0.00,,---,0.00,VWS V14.01,2013-08-29 22:53:00,
2013-08-29 18:58:00,81.3,73.0,29.88,South,186,0.0,13.0,76,0.00,,---,0.00,VWS V14.01,2013-08-29 22:58:00,
2013-08-29 19:00:00,81.3,73.0,29.88,South,187,0.0,13.0,76,0.00,,---,0.00,VWS V14.01,2013-08-29 23:00:00,
2013-08-29 19:03:00,81.2,72.9,29.88,South,187,0.0,1.0,76,0.00,,---,0.00,VWS V14.01,2013-08-29 23:03:00,
2013-08-29 19:08:00,81.2,72.9,29.88,South,185,0.0,3.0,76,0.00,,---,0.00,VWS V14.01,2013-08-29 23:08:00,
2013-08-29 19:13:00,81.2,72.9,29.88,SSE,155,0.0,3.0,76,0.00,,---,0.00,VWS V14.01,2013-08-29 23:13:00,
2013-08-29 19:18:00,80.9,73.0,29.88,SSE,152,2.0,5.0,77,0.00,,---,0.00,VWS V14.01,2013-08-29 23:18:00,
2013-08-29 19:23:00,80.8,72.9,29.88,SSE,153,0.0,5.0,77,0.00,,---,0.00,VWS V14.01,2013-08-29 23:23:00,
2013-08-29 19:28:00,80.6,73.1,29.89,SSE,153,1.0,5.0,78,0.00,,---,0.00,VWS V14.01,2013-08-29 23:28:00,
2013-08-29 19:30:00,80.6,73.1,29.89,SSE,153,0.0,5.0,78,0.00,,---,0.00,VWS V14.01,2013-08-29 23:30:00,
2013-08-29 19:33:00,80.6,73.1,29.89,SSE,153,0.0,3.0,78,0.00,,---,0.00,VWS V14.01,2013-08-29 23:33:00,
2013-08-29 19:38:00,80.5,73.0,29.89,SSE,153,0.0,3.0,78,0.00,,---,0.00,VWS V14.01,2013-08-29 23:38:00,
2013-08-29 19:43:00,80.4,73.3,29.89,SSE,153,0.0,3.0,79,0.00,,---,0.00,VWS V14.01,2013-08-29 23:43:00,
2013-08-29 19:48:00,80.2,73.1,29.89,SSE,153,0.0,3.0,79,0.00,,---,0.00,VWS V14.01,2013-08-29 23:48:00,
2013-08-29 19:53:00,80.1,73.4,29.89,SSE,153,0.0,3.0,80,0.00,,---,0.00,VWS V14.01,2013-08-29 23:53:00,
2013-08-29 19:58:00,80.0,73.3,29.89,SSE,153,0.0,3.0,80,0.00,,---,0.00,VWS V14.01,2013-08-29 23:58:00,
2013-08-29 20:00:00,80.0,73.3,29.89,SSE,153,0.0,3.0,80,0.00,,---,0.00,VWS V14.01,2013-08-30 00:00:00,
2013-08-29 20:03:00,79.8,73.1,29.90,SSE,153,0.0,0.0,80,0.00,,---,0.00,VWS V14.01,2013-08-30 00:03:00,
2013-08-29 20:08:00,79.8,73.1,29.90,SSE,153,0.0,1.0,80,0.00,,---,0.00,VWS V14.01,2013-08-30 00:08:00,
2013-08-29 20:13:00,79.6,73.3,29.90,SSE,153,0.0,1.0,81,0.00,,---,0.00,VWS V14.01,2013-08-30 00:13:00,
2013-08-29 20:18:00,79.6,73.3,29.90,SSE,153,0.0,1.0,81,0.00,,---,0.00,VWS V14.01,2013-08-30 00:18:00,
2013-08-29 20:23:00,79.6,73.6,29.89,SSE,153,0.0,1.0,82,0.00,,---,0.00,VWS V14.01,2013-08-30 00:23:00,
2013-08-29 20:28:00,79.4,73.4,29.90,SSE,153,0.0,1.0,82,0.00,,---,0.00,VWS V14.01,2013-08-30 00:28:00,
2013-08-29 20:30:00,79.4,73.4,29.90,SSE,153,0.0,1.0,82,0.00,,---,0.00,VWS V14.01,2013-08-30 00:30:00,
2013-08-29 20:33:00,79.2,73.6,29.90,SSE,153,0.0,0.0,83,0.00,,---,0.00,VWS V14.01,2013-08-30 00:33:00,
2013-08-29 20:38:00,79.0,73.4,29.91,SSE,153,0.0,0.0,83,0.00,,---,0.00,VWS V14.01,2013-08-30 00:38:00,
2013-08-29 20:43:00,78.9,73.3,29.92,SSE,153,0.0,1.0,83,0.00,,---,0.00,VWS V14.01,2013-08-30 00:43:00,
2013-08-29 20:49:00,78.7,73.1,29.92,SSE,153,0.0,1.0,83,0.00,,---,0.00,VWS V14.01,2013-08-30 00:49:00,
2013-08-29 20:53:00,78.7,73.1,29.92,SSE,153,0.0,1.0,83,0.00,,---,0.00,VWS V14.01,2013-08-30 00:53:00,
2013-08-29 20:59:00,78.7,73.1,29.92,SSE,153,0.0,1.0,83,0.00,,---,0.00,VWS V14.01,2013-08-30 00:59:00,
2013-08-29 21:00:00,78.7,73.1,29.92,SSE,153,0.0,1.0,83,0.00,,---,0.00,VWS V14.01,2013-08-30 01:00:00,
2013-08-29 21:04:00,78.7,73.1,29.93,SSE,153,0.0,0.0,83,0.00,,---,0.00,VWS V14.01,2013-08-30 01:04:00,
2013-08-29 21:09:00,78.8,73.2,29.93,SSE,153,0.0,1.0,83,0.00,,---,0.00,VWS V14.01,2013-08-30 01:09:00,
2013-08-29 21:14:00,78.9,73.3,29.93,SSE,153,0.0,1.0,83,0.00,,---,0.00,VWS V14.01,2013-08-30 01:14:00,
2013-08-29 21:19:00,78.9,73.3,29.93,SSE,153,0.0,1.0,83,0.00,,---,0.00,VWS V14.01,2013-08-30 01:19:00,
2013-08-29 21:24:00,78.9,73.3,29.94,SSE,153,0.0,1.0,83,0.00,,---,0.00,VWS V14.01,2013-08-30 01:24:00,
2013-08-29 21:29:00,78.8,73.6,29.94,SSE,153,0.0,0.0,84,0.00,,---,0.00,VWS V14.01,2013-08-30 01:29:00,
2013-08-29 21:30:00,78.8,73.6,29.94,SSE,153,0.0,1.0,84,0.00,,---,0.00,VWS V14.01,2013-08-30 01:30:00,
2013-08-29 21:34:00,78.7,73.5,29.94,SSE,153,0.0,0.0,84,0.00,,---,0.00,VWS V14.01,2013-08-30 01:34:00,
2013-08-29 21:39:00,78.6,73.4,29.93,SSE,153,0.0,0.0,84,0.00,,---,0.00,VWS V14.01,2013-08-30 01:39:00,
2013-08-29 21:44:00,78.5,73.6,29.93,SSE,153,0.0,0.0,85,0.00,,---,0.00,VWS V14.01,2013-08-30 01:44:00,
2013-08-29 21:49:00,78.3,73.4,29.93,SSE,153,0.0,1.0,85,0.00,,---,0.00,VWS V14.01,2013-08-30 01:49:00,
2013-08-29 21:54:00,78.1,73.2,29.93,SSE,153,0.0,1.0,85,0.00,,---,0.00,VWS V14.01,2013-08-30 01:54:00,
2013-08-29 21:59:00,78.0,73.1,29.93,SSE,153,0.0,0.0,85,0.00,,---,0.00,VWS V14.01,2013-08-30 01:59:00,
2013-08-29 22:00:00,78.0,73.1,29.93,SSE,153,0.0,1.0,85,0.00,,---,0.00,VWS V14.01,2013-08-30 02:00:00,
2013-08-29 22:04:00,77.8,73.3,29.93,SSE,153,0.0,0.0,86,0.00,,---,0.00,VWS V14.01,2013-08-30 02:04:00,
2013-08-29 22:09:00,77.8,73.3,29.93,SSE,153,0.0,1.0,86,0.00,,---,0.00,VWS V14.01,2013-08-30 02:09:00,
2013-08-29 22:14:00,77.7,73.2,29.93,SSE,153,0.0,1.0,86,0.00,,---,0.00,VWS V14.01,2013-08-30 02:14:00,
2013-08-29 22:19:00,77.6,73.4,29.93,SSE,153,0.0,1.0,87,0.00,,---,0.00,VWS V14.01,2013-08-30 02:19:00,
2013-08-29 22:24:00,77.5,73.3,29.94,SSE,153,0.0,1.0,87,0.00,,---,0.00,VWS V14.01,2013-08-30 02:24:00,
2013-08-29 22:29:00,77.4,73.2,29.94,SSE,153,0.0,0.0,87,0.00,,---,0.00,VWS V14.01,2013-08-30 02:29:00,
2013-08-29 22:30:00,77.4,73.2,29.94,SSE,153,0.0,1.0,87,0.00,,---,0.00,VWS V14.01,2013-08-30 02:30:00,
2013-08-29 22:34:00,77.4,73.2,29.94,SSE,153,0.0,0.0,87,0.00,,---,0.00,VWS V14.01,2013-08-30 02:34:00,
2013-08-29 22:39:00,77.3,73.1,29.94,SSE,153,0.0,0.0,87,0.00,,---,0.00,VWS V14.01,2013-08-30 02:39:00,
2013-08-29 22:44:00,77.2,73.4,29.94,SSE,153,0.0,1.0,88,0.00,,---,0.00,VWS V14.01,2013-08-30 02:44:00,
2013-08-29 22:49:00,77.2,73.4,29.94,SSE,153,0.0,1.0,88,0.00,,---,0.00,VWS V14.01,2013-08-30 02:49:00,
2013-08-29 22:54:00,77.1,73.3,29.94,SSE,153,0.0,1.0,88,0.00,,---,0.00,VWS V14.01,2013-08-30 02:54:00,
2013-08-29 22:59:00,77.0,73.2,29.94,SSE,153,0.0,0.0,88,0.00,,---,0.00,VWS V14.01,2013-08-30 02:59:00,
2013-08-29 23:00:00,77.0,73.2,29.94,SSE,153,0.0,1.0,88,0.00,,---,0.00,VWS V14.01,2013-08-30 03:00:00,
2013-08-29 23:04:00,76.9,73.1,29.94,SSE,153,0.0,0.0,88,0.00,,---,0.00,VWS V14.01,2013-08-30 03:04:00,
2013-08-29 23:09:00,76.9,73.1,29.94,SSE,153,0.0,0.0,88,0.00,,---,0.00,VWS V14.01,2013-08-30 03:09:00,
2013-08-29 23:14:00,76.7,73.2,29.94,SSE,153,0.0,0.0,89,0.00,,---,0.00,VWS V14.01,2013-08-30 03:14:00,
2013-08-29 23:19:00,76.7,73.2,29.94,SSE,153,0.0,0.0,89,0.00,,---,0.00,VWS V14.01,2013-08-30 03:19:00,
2013-08-29 23:24:00,76.6,73.1,29.94,SSE,153,0.0,0.0,89,0.00,,---,0.00,VWS V14.01,2013-08-30 03:24:00,
2013-08-29 23:30:00,76.5,73.0,29.94,SSE,153,0.0,0.0,89,0.00,,---,0.00,VWS V14.01,2013-08-30 03:30:00,
2013-08-29 23:35:00,76.4,72.9,29.94,SSE,153,0.0,1.0,89,0.00,,---,0.00,VWS V14.01,2013-08-30 03:35:00,
2013-08-29 23:40:00,76.4,72.9,29.94,SSE,153,0.0,1.0,89,0.00,,---,0.00,VWS V14.01,2013-08-30 03:40:00,
2013-08-29 23:45:00,76.2,72.7,29.94,SSE,153,0.0,1.0,89,0.00,,---,0.00,VWS V14.01,2013-08-30 03:45:00,
2013-08-29 23:50:00,76.1,72.6,29.94,SSE,153,0.0,1.0,89,0.00,,---,0.00,VWS V14.01,2013-08-30 03:50:00,
2013-08-29 23:55:00,76.0,72.9,29.95,SSE,155,1.0,1.0,90,0.00,,---,0.00,VWS V14.01,2013-08-30 03:55:00,